Location: Champs
(48.8539°N, 2.6040°E)
Time: 23:09:47
(UTC+00:00)

USA 308 - Visible Passes

Search period start: 28 May 2022 00:00
Search period end: 07 June 2022 00:00
Orbit: 554 x 565 km, 54.0° (Epoch: 18 April)

Date Brightness Start Highest point End Pass type
(mag) Time Alt. Az. Time Alt. Az. Time Alt. Az.
28 May 2.7 00:36:37 46° SW 00:37:45 71° SSE 00:41:56 10° ENE visible
28 May 3.8 02:13:31 10° W 02:17:34 46° NNW 02:21:37 10° ENE visible
28 May 4.8 22:56:38 16° E 22:56:38 16° E 22:58:01 10° E visible
29 May 2.7 00:32:21 35° WSW 00:34:02 88° SSE 00:38:14 10° ENE visible
29 May 4.0 02:09:57 10° W 02:13:57 42° N 02:17:57 10° ENE visible
29 May 4.2 22:52:12 23° ESE 22:52:12 23° ESE 22:54:33 10° ENE visible
30 May 2.9 00:27:54 24° WSW 00:30:19 77° NNW 00:34:31 10° ENE visible
30 May 4.1 02:06:21 10° WNW 02:10:19 41° N 02:14:18 10° ENE visible
30 May 3.5 22:47:31 34° SE 22:47:31 34° SE 22:50:57 10° ENE visible
31 May 3.2 00:23:12 15° WSW 00:26:34 64° NNW 00:30:44 10° ENE visible
31 May 4.2 02:02:41 10° WNW 02:06:39 40° N 02:10:37 10° ENE visible
31 May 3.1 22:42:25 40° S 22:43:14 46° SE 22:47:14 10° ENE visible
01 Jun 3.5 00:18:42 10° W 00:22:49 55° NNW 00:26:57 10° ENE visible
01 Jun 4.2 01:58:58 10° WNW 02:02:57 40° N 02:06:55 10° ENE visible
01 Jun 4.7 21:00:49 12° ESE 21:00:49 12° ESE 21:02:13 10° ESE visible
01 Jun 2.8 22:36:21 18° SW 22:39:20 59° SE 22:43:27 10° ENE visible
02 Jun 3.8 00:14:58 10° W 00:19:03 49° NNW 00:23:08 10° ENE visible
02 Jun 4.2 01:55:13 10° WNW 01:59:12 42° N 02:03:12 10° E visible
02 Jun 4.3 20:53:43 10° S 20:56:24 17° SE 20:59:06 10° E visible
02 Jun 2.7 22:31:16 10° SW 22:35:26 75° SSE 22:39:36 10° ENE visible
03 Jun 4.0 00:11:15 10° W 00:15:16 45° N 00:19:18 10° ENE visible
03 Jun 4.1 01:51:23 10° WNW 01:55:25 45° N 01:59:27 10° E visible
03 Jun 4.0 20:49:05 10° S 20:52:20 22° SE 20:55:35 10° E visible
03 Jun 2.8 22:27:20 10° WSW 22:31:31 88° NNW 22:35:43 10° ENE visible
04 Jun 4.1 00:07:27 10° W 00:11:27 42° N 00:15:26 10° ENE visible
04 Jun 3.9 01:47:31 10° WNW 01:51:36 49° NNE 01:55:40 10° E visible
04 Jun 3.7 20:44:39 10° SSW 20:48:16 29° SE 20:51:53 10° ENE visible
04 Jun 3.0 22:23:25 10° WSW 22:27:35 73° NNW 22:31:47 10° ENE visible
05 Jun 4.2 00:03:38 10° WNW 00:07:36 40° N 00:11:34 10° ENE visible
05 Jun 3.6 01:43:36 10° WNW 01:47:43 56° NNE 01:51:50 10° E visible
05 Jun 3.3 20:40:20 10° SSW 20:44:10 37° SE 20:48:03 10° ENE visible
05 Jun 3.3 22:19:31 10° WSW 22:23:39 62° NNW 22:27:48 10° ENE visible
05 Jun 4.3 23:59:46 10° WNW 00:03:44 40° N 00:07:41 10° ENE visible
06 Jun 3.3 01:39:37 10° WNW 01:43:47 65° NNE 01:47:56 10° ESE visible
06 Jun 3.0 20:36:05 10° SW 20:40:06 48° SE 20:44:08 10° ENE visible
06 Jun 3.6 22:15:36 10° W 22:19:42 54° NNW 22:23:49 10° ENE visible
